When you browse on this site, cookies collect data to enhance your experience and personalize the content and advertising you see.
Visit our Privacy Policy to learn more. By continuing to use the site, you agree to this use of cookies and data.
  • In Deutschland
  • Länderverzeichnis
  • Für 7 Tage
  • Wassertemperatur
  • Wetterkarte
  • Widgets
  • user-avatar
    Anmelden

    Stündliche Wetter Viedma

    Heute, 16 September, Montag

    Zeit Temperatur Niederschläge Wind Luftdruck Luftfeuchtigkeit
    00:00 +7°C° 0 mm 5 m/S 759 mmHg 62%
    01:00 +6°C° 0 mm 4 m/S 759 mmHg 65%
    02:00 +6°C° 0 mm 4 m/S 760 mmHg 69%
    03:00 +6°C° 0 mm 4 m/S 760 mmHg 67%
    04:00 +6°C° 0 mm 4 m/S 760 mmHg 66%
    05:00 +5°C° 0 mm 5 m/S 760 mmHg 64%
    06:00 +7°C° 0 mm 5 m/S 760 mmHg 57%
    07:00 +8°C° 0 mm 6 m/S 761 mmHg 51%
    08:00 +9°C° 0 mm 7 m/S 761 mmHg 45%
    09:00 +11°C° 0 mm 7 m/S 761 mmHg 37%
    10:00 +12°C° 0 mm 8 m/S 761 mmHg 29%
    11:00 +15°C° 0 mm 9 m/S 760 mmHg 21%
    12:00 +16°C° 0 mm 9 m/S 760 mmHg 21%
    13:00 +16°C° 0 mm 9 m/S 759 mmHg 21%
    14:00 +16°C° 0 mm 9 m/S 758 mmHg 21%
    15:00 +16°C° 0 mm 8 m/S 758 mmHg 24%
    16:00 +16°C° 0 mm 7 m/S 758 mmHg 26%
    17:00 +15°C° 0 mm 6 m/S 757 mmHg 28%
    18:00 +14°C° 0 mm 5 m/S 757 mmHg 32%
    19:00 +12°C° 0 mm 4 m/S 757 mmHg 36%
    20:00 +10°C° 0 mm 3 m/S 757 mmHg 39%
    21:00 +10°C° 0 mm 3 m/S 757 mmHg 43%
    22:00 +10°C° 0 mm 3 m/S 757 mmHg 47%
    23:00 +9°C° 0 mm 3 m/S 757 mmHg 51%

    Morgen, 17 September, Dienstag

    Zeit Temperatur Niederschläge Wind Luftdruck Luftfeuchtigkeit
    00:00 +8°C° 0 mm 4 m/S 757 mmHg 56%
    01:00 +8°C° 0 mm 4 m/S 756 mmHg 61%
    02:00 +8°C° 0 mm 4 m/S 756 mmHg 66%
    03:00 +8°C° 0 mm 4 m/S 755 mmHg 67%
    04:00 +7°C° 0 mm 4 m/S 755 mmHg 68%
    05:00 +7°C° 0 mm 4 m/S 754 mmHg 69%
    06:00 +9°C° 0 mm 5 m/S 754 mmHg 61%
    07:00 +10°C° 0 mm 7 m/S 754 mmHg 53%
    08:00 +12°C° 0 mm 8 m/S 753 mmHg 45%
    09:00 +12°C° 0 mm 9 m/S 753 mmHg 44%
    10:00 +13°C° 0 mm 10 m/S 753 mmHg 42%
    11:00 +14°C° 0 mm 11 m/S 753 mmHg 40%
    12:00 +14°C° 0 mm 11 m/S 752 mmHg 39%
    13:00 +16°C° 0 mm 11 m/S 752 mmHg 38%
    14:00 +16°C° 0 mm 11 m/S 752 mmHg 37%
    15:00 +14°C° 0 mm 11 m/S 752 mmHg 39%
    16:00 +14°C° 0 mm 10 m/S 753 mmHg 42%
    17:00 +13°C° 0 mm 9 m/S 753 mmHg 44%
    18:00 +11°C° 0 mm 8 m/S 754 mmHg 52%
    19:00 +10°C° 0 mm 7 m/S 754 mmHg 60%
    20:00 +8°C° 0 mm 6 m/S 755 mmHg 68%
    21:00 +7°C° 0 mm 5 m/S 755 mmHg 73%
    22:00 +6°C° 0 mm 4 m/S 756 mmHg 77%
    23:00 +5°C° 0 mm 3 m/S 756 mmHg 82%

    übermorgen, 18 September, Mittwoch

    Zeit Temperatur Niederschläge Wind Luftdruck Luftfeuchtigkeit
    00:00 +5°C° 0 mm 3 m/S 756 mmHg 83%
    01:00 +6°C° 0 mm 2 m/S 755 mmHg 84%
    02:00 +5°C° 0 mm 2 m/S 755 mmHg 85%
    03:00 +5°C° 0 mm 2 m/S 755 mmHg 83%
    04:00 +4°C° 0 mm 3 m/S 754 mmHg 82%
    05:00 +4°C° 0 mm 3 m/S 754 mmHg 81%
    06:00 +5°C° 0 mm 4 m/S 753 mmHg 73%
    07:00 +7°C° 0 mm 5 m/S 753 mmHg 65%
    08:00 +8°C° 0 mm 7 m/S 752 mmHg 57%
    09:00 +11°C° 0 mm 8 m/S 751 mmHg 48%
    10:00 +13°C° 0 mm 10 m/S 750 mmHg 40%
    11:00 +17°C° 0 mm 11 m/S 749 mmHg 31%
    12:00 +18°C° 0 mm 11 m/S 748 mmHg 28%
    13:00 +21°C° 0 mm 11 m/S 746 mmHg 25%
    14:00 +22°C° 0 mm 11 m/S 744 mmHg 23%
    15:00 +21°C° 0 mm 10 m/S 743 mmHg 24%
    16:00 +20°C° 0 mm 8 m/S 743 mmHg 25%
    17:00 +18°C° 0 mm 7 m/S 742 mmHg 26%
    18:00 +16°C° 0 mm 8 m/S 743 mmHg 38%
    19:00 +12°C° 0 mm 8 m/S 743 mmHg 50%
    20:00 +8°C° 0 mm 9 m/S 744 mmHg 61%
    21:00 +8°C° 0 mm 9 m/S 745 mmHg 52%
    22:00 +8°C° 0 mm 9 m/S 745 mmHg 42%
    23:00 +9°C° 0 mm 8 m/S 746 mmHg 33%

    19 September, Donnerstag

    Zeit Temperatur Niederschläge Wind Luftdruck Luftfeuchtigkeit
    00:00 +7°C° 0 mm 9 m/S 746 mmHg 35%
    01:00 +6°C° 0 mm 9 m/S 747 mmHg 37%
    02:00 +5°C° 0 mm 9 m/S 747 mmHg 39%
    03:00 +5°C° 0 mm 9 m/S 748 mmHg 40%
    04:00 +5°C° 0 mm 9 m/S 749 mmHg 41%
    05:00 +3°C° 0 mm 9 m/S 750 mmHg 43%
    06:00 +5°C° 0 mm 10 m/S 750 mmHg 41%
    07:00 +6°C° 0 mm 11 m/S 751 mmHg 40%
    08:00 +5°C° 0 mm 12 m/S 752 mmHg 38%
    09:00 +7°C° 0 mm 12 m/S 753 mmHg 34%
    10:00 +8°C° 0 mm 12 m/S 753 mmHg 31%
    11:00 +9°C° 0 mm 12 m/S 754 mmHg 27%
    12:00 +9°C° 0 mm 11 m/S 754 mmHg 26%
    13:00 +11°C° 0 mm 11 m/S 754 mmHg 25%
    14:00 +11°C° 0 mm 11 m/S 753 mmHg 25%
    15:00 +11°C° 0 mm 10 m/S 754 mmHg 25%
    16:00 +11°C° 0 mm 9 m/S 754 mmHg 25%
    17:00 +11°C° 0 mm 8 m/S 754 mmHg 24%
    18:00 +10°C° 0 mm 7 m/S 754 mmHg 28%
    19:00 +8°C° 0 mm 5 m/S 755 mmHg 32%
    20:00 +7°C° 0 mm 4 m/S 755 mmHg 36%
    21:00 +7°C° 0 mm 4 m/S 755 mmHg 38%
    22:00 +6°C° 0 mm 4 m/S 755 mmHg 40%
    23:00 +6°C° 0 mm 4 m/S 755 mmHg 43%

    20 September, Freitag

    Zeit Temperatur Niederschläge Wind Luftdruck Luftfeuchtigkeit
    00:00 +6°C° 0 mm 5 m/S 756 mmHg 45%
    01:00 +7°C° 0 mm 5 m/S 756 mmHg 48%
    02:00 +7°C° 0 mm 5 m/S 756 mmHg 50%
    03:00 +6°C° 0 mm 5 m/S 756 mmHg 54%
    04:00 +6°C° 0 mm 4 m/S 756 mmHg 57%
    05:00 +5°C° 0 mm 4 m/S 756 mmHg 61%
    06:00 +7°C° 0 mm 4 m/S 757 mmHg 56%
    07:00 +8°C° 0 mm 5 m/S 757 mmHg 50%
    08:00 +9°C° 0 mm 6 m/S 757 mmHg 45%
    09:00 +10°C° 0 mm 6 m/S 757 mmHg 39%
    10:00 +13°C° 0 mm 6 m/S 757 mmHg 33%
    11:00 +14°C° 0 mm 7 m/S 757 mmHg 27%
    12:00 +15°C° 0 mm 7 m/S 756 mmHg 25%
    13:00 +16°C° 0 mm 7 m/S 756 mmHg 23%
    14:00 +16°C° 0 mm 7 m/S 755 mmHg 21%
    15:00 +16°C° 0 mm 6 m/S 754 mmHg 22%
    16:00 +16°C° 0 mm 6 m/S 754 mmHg 22%
    17:00 +16°C° 0 mm 5 m/S 753 mmHg 23%
    18:00 +14°C° 0 mm 4 m/S 754 mmHg 29%
    19:00 +11°C° 0 mm 3 m/S 754 mmHg 36%
    20:00 +9°C° 0 mm 3 m/S 754 mmHg 42%
    21:00 +9°C° 0 mm 3 m/S 754 mmHg 40%
    22:00 +9°C° 0 mm 3 m/S 754 mmHg 39%
    23:00 +9°C° 0 mm 3 m/S 754 mmHg 38%

    21 September, Samstag

    Zeit Temperatur Niederschläge Wind Luftdruck Luftfeuchtigkeit
    00:00 +8°C° 0 mm 4 m/S 754 mmHg 42%
    01:00 +7°C° 0 mm 4 m/S 754 mmHg 47%
    02:00 +7°C° 0 mm 5 m/S 754 mmHg 52%
    03:00 +7°C° 0 mm 5 m/S 754 mmHg 50%
    04:00 +8°C° 0 mm 6 m/S 754 mmHg 49%
    05:00 +8°C° 0 mm 6 m/S 754 mmHg 48%
    06:00 +9°C° 0 mm 8 m/S 755 mmHg 46%
    07:00 +10°C° 0 mm 9 m/S 755 mmHg 43%
    08:00 +11°C° 0 mm 10 m/S 755 mmHg 41%
    09:00 +11°C° 0 mm 10 m/S 756 mmHg 38%
    10:00 +12°C° 0 mm 11 m/S 756 mmHg 35%
    11:00 +12°C° 0 mm 11 m/S 756 mmHg 32%
    12:00 +12°C° 0 mm 11 m/S 756 mmHg 30%
    13:00 +12°C° 0 mm 11 m/S 756 mmHg 29%
    14:00 +12°C° 0 mm 11 m/S 756 mmHg 28%
    15:00 +12°C° 0 mm 10 m/S 757 mmHg 27%
    16:00 +11°C° 0 mm 10 m/S 757 mmHg 26%
    17:00 +11°C° 0 mm 10 m/S 758 mmHg 25%
    18:00 +9°C° 0 mm 8 m/S 759 mmHg 31%
    19:00 +8°C° 0 mm 6 m/S 760 mmHg 38%
    20:00 +6°C° 0 mm 4 m/S 761 mmHg 45%
    21:00 +5°C° 0 mm 3 m/S 761 mmHg 51%
    22:00 +5°C° 0 mm 2 m/S 761 mmHg 58%
    23:00 +5°C° 0 mm 1 m/S 762 mmHg 65%
    Mehr zeigen